Location: Pasadena, ca
(34.1243°N, 118.1037°W)
Time: 10:32:09
(UTC-08:00)

OTV 5 (USA 277) - Pass Details

Date: 10 November 2017
Orbit: 404 x 417 km, 43.0° (Epoch: 07 September)

Event Time Altitude Azimuth Distance (km) Brightness Sun altitude
Exits shadow 05:27:28 18° 300° (WNW) 1,084 ? -11.4°
Maximum altitude 05:29:05 26° 343° (NNW) 840 ? -11.1°
Drops below altitude 10° 05:31:54 10° 43° (NE) 1,456 ? -10.5°
Sets 05:34:13 0° 56° (ENE) 2,317 ? -10.0°
